sat.trackr.live / text

‹ back to catalog

STARLINK-33785

NORAD 63516 · 2025-071Z

PAYLOAD ACTIVE UNKNOWN

§ Identity

Operator
Country
US
Launch date
2025-04-07
Launch site
AFWTR
Launch vehicle
Mass (kg)
RCS (m²)

Purposes: comms

External: N2YO · Heavens-Above · Gunter

§ Orbital elements

Epoch: 2026-09-20T10:26:36.667104Z

Period
94.01 min
Inclination
53.1590°
Eccentricity
0.0000993
Mean motion
15.31711263 rev/d
Perigee alt
470.0 km
Apogee alt
471.4 km
Semi-major
6,848.8 km
B*
2.9555e-4
RAAN
314.0834°
Arg perigee
86.1608°
Mean anomaly
273.9507°
Rev number
8,258

§ Raw data

STARLINK-337851 63516U 25071Z   26263.43514661  .00008820  00000+0  29555-3 0  99912 63516  53.1590 314.0834 0000993  86.1608 273.9507 15.31711263 82585

JSON: /api/v1/satellites/63516 · /tle

For live sub-satellite position, see the globe view (requires WebGL).

§ Visibility from observer

Set your observer location to see the next 7 days of passes ≥ 10°. The values pass through the URL so the page stays shareable.

No JS? Fill the form by hand. The geolocation button needs JavaScript.